This is the latest recevied weather packets stored in our database for station/object DG3OBU-6. If no packets are shown the sender has not sent any weather packets the latest 10 day(s).
| Time | Temp. | Humidity | Pressure | Rain* | Wind** | Luminosity | Snow |
|---|---|---|---|---|---|---|---|
| 1777822202 | 22.78° C | 39% | 1008.3 hPa | 0 mm | - | - | - |
| 1777821903 | 23.33° C | 39% | 1008.4 hPa | 0 mm | - | - | - |
| 1777821603 | 23.33° C | 39% | 1008.3 hPa | 0 mm | - | - | - |
| 1777821302 | 23.33° C | 39% | 1008.3 hPa | 0 mm | - | - | - |
| 1777821003 | 23.33° C | 39% | 1008.3 hPa | 0 mm | - | - | - |
| 1777820703 | 23.33° C | 39% | 1008.3 hPa | 0 mm | - | - | - |
| 1777820403 | 23.33° C | 41% | 1008.2 hPa | 0 mm | - | - | - |
| 1777820103 | 23.89° C | 39% | 1008.2 hPa | 0 mm | - | - | - |
| 1777819803 | 23.89° C | 39% | 1008.3 hPa | 0 mm | - | - | - |
| 1777819202 | 24.44° C | 38% | 1008.1 hPa | 0 mm | - | - | - |
| 1777818902 | 25° C | 37% | 1008.2 hPa | 0 mm | - | - | - |
| 1777818602 | 25.56° C | 36% | 1008.1 hPa | 0 mm | - | - | - |
| 1777818302 | 25.56° C | 37% | 1008.1 hPa | 0 mm | - | - | - |
| 1777818002 | 26.11° C | 35% | 1008.2 hPa | 0 mm | - | - | - |
| 1777817702 | 26.11° C | 37% | 1008.1 hPa | 0 mm | - | - | - |
| 1777817402 | 25.56° C | 35% | 1008.2 hPa | 0 mm | - | - | - |
| 1777817102 | 25.56° C | 35% | 1008.3 hPa | 0 mm | - | - | - |
| 1777816802 | 25.56° C | 35% | 1008.3 hPa | 0 mm | - | - | - |
| 1777816502 | 25.56° C | 35% | 1008.3 hPa | 0 mm | - | - | - |
| 1777816202 | 25.56° C | 38% | 1008.3 hPa | 0 mm | - | - | - |
| 1777815902 | 25° C | 39% | 1008.4 hPa | 0 mm | - | - | - |
| 1777815602 | 24.44° C | 38% | 1008.5 hPa | 0 mm | - | - | - |
| 1777815303 | 24.44° C | 38% | 1008.5 hPa | 0 mm | - | - | - |
| 1777815003 | 24.44° C | 38% | 1008.5 hPa | 0 mm | - | - | - |
| 1777814703 | 25° C | 39% | 1008.6 hPa | 0 mm | - | - | - |
* Rain latest hour (hover to see other rain measurements)
** Current wind speed in m/s (hover to see current wind gust speed)